Location: Unspecified
(0.0000°N, 0.0000°E)
Time: 01:29:22
(UTC+00:00)

Courier 1B - Pass Details

Date: 28 November 2019
Orbit: 963 x 1209 km, 28.3° (Epoch: 11 December)

Event Time Altitude Azimuth Distance (km) Brightness Sun altitude
Rises 22:57:00 0° 254° (WSW) 4,054 - -65.3°
Reaches altitude 10° 22:59:57 10° 260° (W) 3,112 - -65.6°
Maximum altitude 23:07:20 46° 331° (NNW) 1,566 - -66.4°
Drops below altitude 10° 23:14:46 10° 42° (NE) 3,125 - -67.1°
Sets 23:17:44 0° 48° (NE) 4,072 - -67.4°
